• en France
  • Liste des pays
  • À 7 jours
  • Température de l'eau
  • Carte satellitaire
  • Carte météo
  • Widgets météo
  • user-avatar
    Se connecter

    Météo par heure à Selfoss

    Ce jour, 18 Décembre, Lundi

    Heure Température Précipitation Vent Pression Humidité
    00:00 0°C° 0,3 mm 8 m/s 746 mmHg 93%
    01:00 +1°C° 0,3 mm 8 m/s 745 mmHg 94%
    02:00 +2°C° 0,3 mm 7 m/s 744 mmHg 95%
    03:00 +3°C° 0,1 mm 6 m/s 744 mmHg 96%
    04:00 +3°C° 0,1 mm 6 m/s 745 mmHg 97%
    05:00 +3°C° 0,1 mm 5 m/s 745 mmHg 97%
    06:00 +3°C° 0,1 mm 5 m/s 745 mmHg 98%
    07:00 +3°C° 0,1 mm 5 m/s 745 mmHg 98%
    08:00 +3°C° 0,1 mm 5 m/s 745 mmHg 98%
    09:00 +3°C° 0,9 mm 5 m/s 745 mmHg 98%
    10:00 +3°C° 0,9 mm 5 m/s 744 mmHg 98%
    11:00 +3°C° 0,9 mm 5 m/s 744 mmHg 98%
    12:00 +3°C° 1,4 mm 5 m/s 744 mmHg 98%
    13:00 +4°C° 1,4 mm 4 m/s 743 mmHg 98%
    14:00 +4°C° 1,4 mm 4 m/s 742 mmHg 98%
    15:00 +4°C° 3,2 mm 4 m/s 741 mmHg 98%
    16:00 +4°C° 3,2 mm 3 m/s 740 mmHg 99%
    17:00 +4°C° 3,2 mm 3 m/s 739 mmHg 99%
    18:00 +4°C° 1,7 mm 3 m/s 739 mmHg 99%
    19:00 +4°C° 1,7 mm 4 m/s 739 mmHg 98%
    20:00 +3°C° 1,7 mm 5 m/s 739 mmHg 98%
    21:00 +2°C° 0,6 mm 6 m/s 740 mmHg 95%
    22:00 +2°C° 0,6 mm 7 m/s 741 mmHg 91%
    23:00 +1°C° 0,6 mm 8 m/s 742 mmHg 87%

    Demain, 19 Décembre, Mardi

    Heure Température Précipitation Vent Pression Humidité
    00:00 0°C° 0,2 mm 8 m/s 743 mmHg 82%
    01:00 0°C° 0,2 mm 9 m/s 743 mmHg 77%
    02:00 0°C° 0,2 mm 10 m/s 744 mmHg 72%
    03:00 0°C° 0,3 mm 10 m/s 744 mmHg 72%
    04:00 0°C° 0,3 mm 10 m/s 745 mmHg 72%
    05:00 0°C° 0,3 mm 10 m/s 745 mmHg 73%
    06:00 0°C° 0,3 mm 10 m/s 746 mmHg 73%
    07:00 0°C° 0,3 mm 10 m/s 746 mmHg 74%
    08:00 0°C° 0,3 mm 10 m/s 747 mmHg 74%
    09:00 0°C° 0,2 mm 9 m/s 747 mmHg 75%
    10:00 0°C° 0,2 mm 9 m/s 748 mmHg 75%
    11:00 0°C° 0,2 mm 9 m/s 749 mmHg 76%
    12:00 0°C° 0,3 mm 8 m/s 749 mmHg 76%
    13:00 0°C° 0,3 mm 8 m/s 749 mmHg 76%
    14:00 0°C° 0,3 mm 8 m/s 749 mmHg 76%
    15:00 -1°C° 0,2 mm 8 m/s 750 mmHg 76%
    16:00 -1°C° 0,2 mm 8 m/s 750 mmHg 76%
    17:00 -1°C° 0,2 mm 7 m/s 750 mmHg 77%
    18:00 -1°C° 0,3 mm 8 m/s 750 mmHg 76%
    19:00 -1°C° 0,3 mm 8 m/s 751 mmHg 76%
    20:00 0°C° 0,3 mm 9 m/s 751 mmHg 75%
    21:00 0°C° 0,4 mm 9 m/s 750 mmHg 77%
    22:00 -1°C° 0,4 mm 8 m/s 750 mmHg 78%
    23:00 -1°C° 0,4 mm 8 m/s 750 mmHg 80%

    Après-demain, 20 Décembre, Mercredi

    Heure Température Précipitation Vent Pression Humidité
    00:00 0°C° 0,6 mm 8 m/s 750 mmHg 80%
    01:00 0°C° 0,6 mm 8 m/s 749 mmHg 80%
    02:00 0°C° 0,6 mm 9 m/s 748 mmHg 80%
    03:00 0°C° 0,8 mm 9 m/s 748 mmHg 78%
    04:00 -2°C° 0,8 mm 10 m/s 748 mmHg 76%
    05:00 -2°C° 0,8 mm 10 m/s 748 mmHg 74%
    06:00 -1°C° 0,3 mm 9 m/s 748 mmHg 75%
    07:00 -2°C° 0,3 mm 7 m/s 749 mmHg 77%
    08:00 -3°C° 0,3 mm 6 m/s 750 mmHg 78%
    09:00 -3°C° 0,5 mm 7 m/s 750 mmHg 78%
    10:00 -3°C° 0,5 mm 7 m/s 751 mmHg 79%
    11:00 -2°C° 0,5 mm 8 m/s 751 mmHg 79%
    12:00 -4°C° 0,3 mm 9 m/s 752 mmHg 77%
    13:00 -4°C° 0,3 mm 10 m/s 752 mmHg 75%
    14:00 -4°C° 0,3 mm 11 m/s 753 mmHg 73%
    15:00 -4°C° 0,3 mm 11 m/s 753 mmHg 73%
    16:00 -5°C° 0,3 mm 12 m/s 753 mmHg 73%
    17:00 -3°C° 0,3 mm 12 m/s 754 mmHg 73%
    18:00 -3°C° 0,3 mm 12 m/s 754 mmHg 75%
    19:00 -3°C° 0,3 mm 12 m/s 755 mmHg 76%
    20:00 -3°C° 0,3 mm 11 m/s 755 mmHg 78%
    21:00 -3°C° 0,4 mm 11 m/s 756 mmHg 78%
    22:00 -3°C° 0,4 mm 11 m/s 756 mmHg 78%
    23:00 -3°C° 0,4 mm 12 m/s 756 mmHg 79%

    21 Décembre, Jeudi

    Heure Température Précipitation Vent Pression Humidité
    00:00 -3°C° 0,4 mm 12 m/s 756 mmHg 78%
    01:00 -3°C° 0,4 mm 12 m/s 757 mmHg 77%
    02:00 -3°C° 0,4 mm 12 m/s 757 mmHg 75%
    03:00 -3°C° 0,4 mm 12 m/s 757 mmHg 76%
    04:00 -2°C° 0,4 mm 12 m/s 758 mmHg 76%
    05:00 -2°C° 0,4 mm 12 m/s 758 mmHg 77%
    06:00 -2°C° 0,4 mm 11 m/s 759 mmHg 77%
    07:00 -2°C° 0,4 mm 11 m/s 759 mmHg 77%
    08:00 -2°C° 0,4 mm 11 m/s 760 mmHg 78%
    09:00 -3°C° 0,2 mm 10 m/s 760 mmHg 77%
    10:00 -3°C° 0,2 mm 9 m/s 761 mmHg 77%
    11:00 -2°C° 0,2 mm 8 m/s 762 mmHg 77%
    12:00 -2°C° 0 mm 7 m/s 762 mmHg 78%
    13:00 -2°C° 0 mm 7 m/s 763 mmHg 79%
    14:00 -2°C° 0 mm 6 m/s 763 mmHg 80%
    15:00 -1°C° 0,1 mm 5 m/s 763 mmHg 81%
    16:00 -1°C° 0,1 mm 4 m/s 763 mmHg 83%
    17:00 0°C° 0,1 mm 3 m/s 764 mmHg 84%
    18:00 0°C° 0,3 mm 3 m/s 763 mmHg 87%
    19:00 +1°C° 0,3 mm 3 m/s 763 mmHg 89%
    20:00 +1°C° 0,3 mm 3 m/s 763 mmHg 92%
    21:00 +1°C° 0,2 mm 3 m/s 763 mmHg 93%
    22:00 +1°C° 0,2 mm 3 m/s 763 mmHg 94%
    23:00 +1°C° 0,2 mm 3 m/s 763 mmHg 95%

    22 Décembre, Vendredi

    Heure Température Précipitation Vent Pression Humidité
    00:00 +1°C° 0,5 mm 3 m/s 763 mmHg 96%
    01:00 +2°C° 0,5 mm 3 m/s 763 mmHg 96%
    02:00 +3°C° 0,5 mm 2 m/s 763 mmHg 97%
    03:00 +2°C° 0,5 mm 3 m/s 763 mmHg 98%
    04:00 +2°C° 0,5 mm 3 m/s 763 mmHg 98%
    05:00 +3°C° 0,5 mm 3 m/s 763 mmHg 99%
    06:00 +3°C° 0,9 mm 3 m/s 763 mmHg 99%
    07:00 +3°C° 0,9 mm 4 m/s 762 mmHg 99%
    08:00 +4°C° 0,9 mm 4 m/s 762 mmHg 99%
    09:00 +3°C° 2,3 mm 5 m/s 762 mmHg 99%
    10:00 +3°C° 2,3 mm 5 m/s 761 mmHg 99%
    11:00 +3°C° 2,3 mm 6 m/s 761 mmHg 99%
    12:00 +4°C° 4,1 mm 6 m/s 761 mmHg 99%
    13:00 +4°C° 4,1 mm 6 m/s 761 mmHg 99%
    14:00 +4°C° 4,1 mm 6 m/s 760 mmHg 99%
    15:00 +5°C° 3,9 mm 5 m/s 760 mmHg 99%
    16:00 +5°C° 3,9 mm 5 m/s 760 mmHg 99%
    17:00 +4°C° 3,9 mm 4 m/s 760 mmHg 99%
    18:00 +4°C° 0,4 mm 3 m/s 761 mmHg 99%
    19:00 +4°C° 0,4 mm 3 m/s 761 mmHg 99%
    20:00 +4°C° 0,4 mm 2 m/s 761 mmHg 99%
    21:00 +4°C° 0 mm 2 m/s 761 mmHg 98%
    22:00 +5°C° 0 mm 1 m/s 760 mmHg 98%
    23:00 +4°C° 0 mm 1 m/s 759 mmHg 97%

    23 Décembre, Samedi

    Heure Température Précipitation Vent Pression Humidité
    00:00 +4°C° 0,2 mm 1 m/s 758 mmHg 96%
    01:00 +4°C° 0,2 mm 1 m/s 757 mmHg 95%
    02:00 +3°C° 0,2 mm 2 m/s 755 mmHg 95%
    03:00 +3°C° 0,5 mm 2 m/s 754 mmHg 94%
    04:00 +2°C° 0,5 mm 3 m/s 752 mmHg 93%
    05:00 +1°C° 0,5 mm 4 m/s 750 mmHg 93%
    06:00 +1°C° 1,3 mm 4 m/s 749 mmHg 94%
    07:00 +1°C° 1,3 mm 4 m/s 747 mmHg 94%
    08:00 +1°C° 1,3 mm 4 m/s 746 mmHg 95%
    09:00 +2°C° 0,2 mm 6 m/s 745 mmHg 96%
    10:00 +1°C° 0,2 mm 8 m/s 745 mmHg 96%
    11:00 +2°C° 0,2 mm 9 m/s 744 mmHg 97%
    12:00 +2°C° 0,2 mm 9 m/s 744 mmHg 95%
    13:00 +1°C° 0,2 mm 9 m/s 744 mmHg 94%
    14:00 +1°C° 0,2 mm 9 m/s 744 mmHg 93%
    15:00 +1°C° 0,4 mm 10 m/s 744 mmHg 91%
    16:00 0°C° 0,4 mm 10 m/s 744 mmHg 89%
    17:00 -1°C° 0,4 mm 11 m/s 744 mmHg 86%
    18:00 0°C° 0,3 mm 10 m/s 744 mmHg 82%
    19:00 -2°C° 0,3 mm 10 m/s 744 mmHg 78%
    20:00 -1°C° 0,3 mm 9 m/s 744 mmHg 74%
    21:00 -1°C° 0,2 mm 8 m/s 743 mmHg 75%
    22:00 -2°C° 0,2 mm 8 m/s 743 mmHg 76%
    23:00 -2°C° 0,2 mm 8 m/s 743 mmHg 76%
    Voir plus